GFSNE_prec_precacc_189.txt.gz
Total_Precipitation_Accumulation
1.42 1.35 1.29 1.17 1.28 1.40 1.57 1.88 2.40 2.23 1.42 0.92 0.89 0.88 0.88 0.90 1.06 0.95 0.78 0.99 1.05 1.03 1.04 1.10 0.99 1.03 1.00 1.06 1.19 1.13 1.37 1.67 1.65 1.61 1.69 1.81 1.66 1.65
1.42 1.46 1.47 1.41 1.38 1.31 1.28 1.40 1.59 1.96 1.82 1.04 0.94 0.99 1.15 1.34 1.72 1.70 1.61 1.81 1.43 1.21 1.14 0.93 0.80 0.66 0.59 0.61 0.65 0.67 0.77 1.04 1.27 1.36 1.44 1.70 2.15 2.10
1.59 1.84 1.95 2.06 2.26 2.24 2.29 2.45 2.58 2.69 2.66 1.72 1.37 1.27 1.25 1.25 1.24 1.14 1.19 1.17 1.25 1.45 1.23 1.09 0.87 0.70 0.63 0.57 0.54 0.50 0.50 0.57 0.74 0.89 1.05 1.12 1.24 1.60
0.55 0.71 0.79 0.95 1.21 1.42 1.66 1.82 2.16 2.62 3.05 2.42 1.77 1.61 1.48 1.33 1.12 0.87 0.80 0.85 0.89 1.20 1.20 1.13 1.04 0.94 0.92 0.92 0.82 0.69 0.58 0.51 0.48 0.51 0.58 0.73 0.83 0.90
0.36 0.41 0.44 0.47 0.54 0.58 0.69 0.87 1.03 1.18 1.42 1.39 1.09 1.00 1.02 1.15 1.25 1.17 1.04 0.95 0.88 1.15 1.06 1.04 1.08 1.05 0.96 0.90 0.92 0.98 0.97 0.77 0.56 0.48 0.49 0.52 0.69 0.86
0.13 0.15 0.22 0.31 0.43 0.62 0.86 0.96 0.92 0.80 0.72 0.65 0.60 0.53 0.50 0.54 0.64 0.68 0.65 0.57 0.49 0.50 0.57 0.57 0.65 0.69 0.78 0.81 0.73 0.70 0.78 0.96 1.07 0.98 0.79 0.71 0.66 0.72
0.26 0.31 0.37 0.49 0.57 0.53 0.45 0.36 0.37 0.41 0.43 0.47 0.43 0.33 0.28 0.25 0.27 0.29 0.33 0.39 0.44 0.50 0.41 0.33 0.27 0.23 0.28 0.43 0.59 0.72 0.74 0.78 0.87 1.01 1.08 1.00 0.97 1.01
0.34 0.37 0.41 0.50 0.40 0.39 0.30 0.26 0.22 0.27 0.26 0.22 0.17 0.12 0.10 0.12 0.16 0.24 0.35 0.48 0.49 0.33 0.34 0.31 0.27 0.21 0.16 0.16 0.28 0.41 0.55 0.64 0.70 0.72 0.85 1.05 1.06 1.02
0.25 0.23 0.20 0.19 0.17 0.13 0.19 0.21 0.25 0.23 0.19 0.14 0.10 0.07 0.07 0.08 0.18 0.26 0.27 0.33 0.24 0.12 0.26 0.35 0.30 0.31 0.22 0.24 0.25 0.23 0.33 0.44 0.50 0.58 0.67 0.76 0.93 1.14
0.15 0.13 0.09 0.04 0.03 0.03 0.05 0.11 0.08 0.11 0.16 0.19 0.17 0.17 0.21 0.25 0.32 0.45 0.34 0.28 0.16 0.09 0.17 0.28 0.16 0.22 0.20 0.22 0.32 0.30 0.33 0.35 0.37 0.43 0.52 0.65 0.75 0.83
0.07 0.02 0.02 0.01 0.03 0.04 0.05 0.03 0.01 0.01 0.09 0.18 0.29 0.41 0.49 0.51 0.41 0.42 0.51 0.54 0.39 0.14 0.09 0.15 0.11 0.15 0.16 0.17 0.20 0.29 0.32 0.38 0.46 0.53 0.48 0.50 0.62 0.73
0.02 0.02 0.03 0.02 0.03 0.08 0.10 0.06 0.08 0.02 0.06 0.08 0.11 0.19 0.28 0.33 0.39 0.30 0.28 0.57 0.53 0.62 0.29 0.46 0.26 0.23 0.52 0.16 0.15 0.22 0.25 0.30 0.33 0.40 0.65 0.75 0.68 0.69
0.02 0.01 0.01 0.03 0.09 0.13 0.14 0.09 0.13 0.12 0.10 0.08 0.06 0.11 0.18 0.28 0.33 0.35 0.37 0.55 0.83 0.67 0.18 0.84 1.03 0.51 0.89 0.34 0.08 0.11 0.14 0.20 0.28 0.34 0.45 0.63 0.87 0.89
0.03 0.02 0.02 0.08 0.12 0.11 0.12 0.11 0.15 0.17 0.10 0.06 0.07 0.08 0.15 0.22 0.28 0.36 0.49 0.61 0.63 0.74 0.36 0.62 1.45 0.68 1.03 0.83 0.33 0.13 0.16 0.18 0.24 0.30 0.37 0.58 0.76 0.89
0.04 0.06 0.10 0.11 0.11 0.08 0.08 0.11 0.11 0.09 0.09 0.13 0.10 0.09 0.11 0.16 0.31 0.51 0.65 0.74 0.86 0.82 0.76 0.83 1.06 0.89 1.21 1.22 0.62 0.25 0.31 0.28 0.24 0.27 0.37 0.52 0.64 0.72
0.07 0.10 0.14 0.13 0.12 0.10 0.11 0.11 0.09 0.10 0.17 0.24 0.19 0.14 0.19 0.29 0.43 0.50 0.67 0.65 0.89 0.72 0.72 0.90 0.90 1.16 1.48 0.94 0.85 0.62 0.30 0.49 0.40 0.38 0.46 0.45 0.53 0.70
0.39 0.25 0.18 0.12 0.10 0.11 0.11 0.12 0.19 0.26 0.33 0.31 0.39 0.43 0.40 0.40 0.40 0.39 0.62 0.80 0.96 0.62 0.54 0.58 0.79 0.90 0.94 0.95 1.12 0.62 0.44 0.38 0.33 0.51 0.60 0.54 0.45 0.66
0.46 0.29 0.17 0.13 0.12 0.13 0.18 0.23 0.28 0.36 0.38 0.47 0.54 0.54 0.62 0.61 0.55 0.56 0.61 0.76 0.75 0.50 0.58 0.64 0.71 1.03 0.96 0.80 0.76 0.69 0.65 0.44 0.32 0.33 0.45 0.84 0.47 0.33
0.41 0.15 0.11 0.13 0.15 0.17 0.24 0.31 0.32 0.27 0.40 0.62 0.71 0.71 0.78 0.81 0.82 0.74 0.57 0.68 0.65 0.52 0.56 0.69 0.92 1.32 1.48 0.70 0.40 0.45 0.85 0.70 0.47 0.45 0.44 0.56 0.59 0.35
0.20 0.14 0.10 0.12 0.19 0.28 0.32 0.39 0.44 0.46 0.52 0.56 0.65 0.67 0.81 1.00 0.86 0.67 0.60 0.70 0.73 0.68 0.66 0.63 0.70 0.94 1.61 1.09 0.98 0.43 0.41 0.82 0.99 0.71 0.43 0.40 0.55 0.47
0.09 0.16 0.13 0.16 0.28 0.37 0.43 0.54 0.65 0.66 0.62 0.77 0.69 0.67 0.64 1.00 0.86 0.57 0.67 0.60 0.74 0.81 0.68 0.37 0.27 0.56 1.03 1.43 1.45 0.62 0.53 0.57 0.81 1.20 0.94 0.87 0.47 0.38
0.11 0.21 0.24 0.31 0.40 0.50 0.60 0.65 0.73 0.61 0.60 0.55 0.49 0.53 0.60 0.81 0.92 0.75 0.66 0.81 0.59 0.44 0.44 0.38 0.52 0.70 0.92 1.30 0.83 0.42 0.41 0.45 0.51 0.51 0.70 1.37 1.57 1.29
0.30 0.41 0.42 0.44 0.51 0.64 0.75 0.78 0.67 0.49 0.41 0.52 0.53 0.52 0.63 0.83 0.59 0.66 0.69 0.68 0.64 0.75 0.58 0.58 0.56 0.62 0.72 0.75 0.81 0.67 0.48 0.41 0.35 0.37 0.41 0.42 0.44 0.47

GFSNE_prec_precacc_192.txt.gz
Total_Precipitation_Accumulation
1.42 1.35 1.29 1.17 1.28 1.40 1.57 1.88 2.40 2.23 1.42 0.92 0.89 0.88 0.88 0.90 1.06 0.95 0.78 0.99 1.05 1.03 1.04 1.10 0.99 1.03 1.00 1.06 1.19 1.13 1.37 1.67 1.65 1.61 1.69 1.81 1.66 1.65
1.42 1.46 1.47 1.41 1.38 1.31 1.28 1.40 1.59 1.96 1.82 1.04 0.94 0.99 1.15 1.34 1.72 1.70 1.61 1.81 1.43 1.21 1.14 0.93 0.80 0.66 0.59 0.61 0.65 0.67 0.77 1.04 1.27 1.36 1.44 1.70 2.15 2.11
1.59 1.84 1.95 2.06 2.26 2.24 2.29 2.45 2.58 2.69 2.66 1.72 1.37 1.27 1.25 1.25 1.24 1.14 1.19 1.17 1.25 1.45 1.23 1.09 0.87 0.70 0.63 0.57 0.54 0.50 0.50 0.57 0.74 0.89 1.05 1.12 1.24 1.61
0.55 0.71 0.79 0.95 1.21 1.42 1.66 1.82 2.16 2.62 3.05 2.42 1.77 1.61 1.48 1.33 1.12 0.87 0.80 0.85 0.89 1.20 1.20 1.13 1.04 0.94 0.92 0.92 0.82 0.69 0.58 0.51 0.48 0.51 0.58 0.73 0.84 0.93
0.36 0.41 0.44 0.47 0.54 0.58 0.69 0.87 1.03 1.18 1.42 1.39 1.09 1.00 1.02 1.15 1.25 1.17 1.04 0.95 0.88 1.15 1.06 1.04 1.08 1.05 0.96 0.90 0.92 0.98 0.97 0.77 0.56 0.48 0.49 0.52 0.70 0.86
0.13 0.15 0.22 0.31 0.43 0.62 0.86 0.96 0.92 0.80 0.72 0.65 0.60 0.53 0.50 0.54 0.64 0.68 0.65 0.57 0.49 0.50 0.57 0.57 0.65 0.69 0.78 0.81 0.73 0.70 0.78 0.96 1.07 0.98 0.79 0.72 0.69 0.73
0.26 0.31 0.37 0.49 0.57 0.53 0.45 0.36 0.37 0.41 0.43 0.47 0.43 0.33 0.28 0.25 0.27 0.29 0.33 0.39 0.44 0.50 0.41 0.33 0.27 0.23 0.28 0.43 0.59 0.72 0.74 0.78 0.88 1.02 1.08 1.01 0.98 1.01
0.34 0.37 0.41 0.50 0.40 0.39 0.30 0.26 0.22 0.27 0.26 0.22 0.17 0.12 0.10 0.12 0.16 0.24 0.35 0.48 0.49 0.33 0.34 0.31 0.27 0.21 0.16 0.16 0.28 0.41 0.55 0.64 0.70 0.72 0.85 1.05 1.06 1.02
0.25 0.23 0.20 0.19 0.17 0.13 0.19 0.21 0.25 0.23 0.19 0.14 0.10 0.07 0.07 0.08 0.18 0.26 0.27 0.33 0.24 0.12 0.26 0.35 0.30 0.31 0.22 0.24 0.25 0.23 0.33 0.44 0.50 0.58 0.67 0.76 0.94 1.14
0.15 0.13 0.09 0.04 0.03 0.03 0.05 0.11 0.08 0.11 0.16 0.19 0.17 0.17 0.21 0.25 0.32 0.45 0.34 0.28 0.16 0.09 0.17 0.28 0.16 0.22 0.20 0.22 0.32 0.30 0.34 0.35 0.37 0.43 0.52 0.65 0.75 0.83
0.07 0.02 0.02 0.01 0.03 0.04 0.05 0.03 0.01 0.01 0.09 0.18 0.29 0.41 0.49 0.51 0.41 0.42 0.51 0.54 0.40 0.14 0.09 0.16 0.11 0.15 0.16 0.17 0.20 0.29 0.32 0.38 0.46 0.53 0.48 0.50 0.62 0.74
0.02 0.02 0.03 0.02 0.03 0.08 0.10 0.06 0.08 0.02 0.06 0.08 0.11 0.19 0.28 0.33 0.39 0.30 0.28 0.57 0.54 0.62 0.29 0.47 0.26 0.23 0.52 0.16 0.15 0.22 0.25 0.30 0.33 0.40 0.65 0.75 0.69 0.70
0.02 0.01 0.01 0.03 0.09 0.13 0.14 0.09 0.13 0.12 0.10 0.08 0.06 0.11 0.18 0.28 0.33 0.35 0.37 0.55 0.84 0.68 0.18 0.85 1.04 0.52 0.89 0.34 0.08 0.11 0.14 0.20 0.28 0.34 0.45 0.63 0.87 0.89
0.03 0.02 0.02 0.08 0.12 0.11 0.12 0.11 0.15 0.17 0.10 0.06 0.07 0.08 0.15 0.22 0.28 0.36 0.49 0.61 0.63 0.74 0.36 0.62 1.46 0.69 1.05 0.84 0.33 0.13 0.16 0.18 0.24 0.30 0.37 0.58 0.76 0.89
0.04 0.06 0.10 0.11 0.11 0.08 0.08 0.11 0.11 0.09 0.09 0.13 0.10 0.09 0.11 0.16 0.31 0.51 0.65 0.74 0.86 0.82 0.76 0.83 1.06 0.89 1.22 1.23 0.63 0.25 0.31 0.28 0.24 0.27 0.37 0.52 0.64 0.72
0.07 0.10 0.14 0.13 0.12 0.10 0.11 0.11 0.09 0.10 0.17 0.24 0.19 0.14 0.19 0.29 0.43 0.50 0.67 0.65 0.89 0.72 0.72 0.90 0.90 1.16 1.49 0.94 0.86 0.62 0.30 0.49 0.40 0.38 0.46 0.45 0.53 0.70
0.39 0.25 0.18 0.12 0.10 0.11 0.11 0.12 0.19 0.26 0.33 0.31 0.39 0.43 0.40 0.40 0.40 0.39 0.62 0.80 0.97 0.62 0.54 0.58 0.79 0.90 0.94 0.96 1.12 0.62 0.44 0.38 0.33 0.51 0.60 0.54 0.45 0.66
0.46 0.29 0.17 0.13 0.12 0.13 0.18 0.23 0.28 0.36 0.38 0.47 0.54 0.55 0.63 0.61 0.55 0.56 0.61 0.76 0.75 0.50 0.58 0.64 0.71 1.03 0.96 0.80 0.76 0.69 0.65 0.44 0.32 0.33 0.45 0.84 0.47 0.33
0.41 0.15 0.11 0.13 0.15 0.17 0.24 0.31 0.32 0.27 0.40 0.62 0.71 0.71 0.78 0.81 0.82 0.74 0.57 0.68 0.65 0.52 0.56 0.69 0.92 1.33 1.50 0.71 0.40 0.45 0.85 0.70 0.47 0.45 0.44 0.56 0.59 0.35
0.20 0.14 0.10 0.12 0.19 0.28 0.32 0.39 0.44 0.46 0.52 0.56 0.65 0.67 0.82 1.00 0.87 0.67 0.60 0.70 0.73 0.68 0.66 0.63 0.70 0.94 1.62 1.10 1.01 0.43 0.41 0.82 0.99 0.71 0.43 0.40 0.55 0.47
0.09 0.16 0.13 0.16 0.28 0.37 0.43 0.54 0.65 0.66 0.62 0.77 0.69 0.67 0.64 1.00 0.86 0.58 0.67 0.61 0.74 0.82 0.69 0.37 0.27 0.56 1.04 1.45 1.47 0.62 0.53 0.57 0.81 1.20 0.94 0.89 0.47 0.38
0.11 0.21 0.24 0.31 0.40 0.50 0.60 0.65 0.73 0.61 0.60 0.55 0.49 0.54 0.60 0.82 0.93 0.75 0.67 0.82 0.59 0.45 0.44 0.38 0.52 0.70 0.92 1.30 0.84 0.42 0.41 0.45 0.51 0.51 0.70 1.38 1.59 1.31
0.30 0.41 0.42 0.44 0.51 0.64 0.75 0.78 0.67 0.49 0.41 0.52 0.53 0.52 0.63 0.84 0.59 0.67 0.69 0.68 0.64 0.75 0.58 0.58 0.56 0.62 0.73 0.75 0.82 0.68 0.49 0.41 0.35 0.37 0.41 0.42 0.44 0.47

GFSNE_prec_precacc_195.txt.gz
Total_Precipitation_Accumulation
1.42 1.35 1.29 1.17 1.28 1.40 1.57 1.88 2.40 2.23 1.42 0.92 0.89 0.88 0.88 0.90 1.06 0.95 0.78 0.99 1.05 1.03 1.04 1.10 0.99 1.03 1.00 1.06 1.19 1.13 1.37 1.67 1.65 1.61 1.69 1.81 1.66 1.65
1.42 1.46 1.47 1.41 1.38 1.31 1.28 1.40 1.59 1.96 1.82 1.04 0.94 0.99 1.15 1.34 1.72 1.70 1.61 1.81 1.43 1.21 1.14 0.93 0.80 0.66 0.59 0.61 0.65 0.67 0.77 1.04 1.27 1.36 1.44 1.70 2.15 2.11
1.59 1.84 1.95 2.06 2.26 2.24 2.29 2.45 2.58 2.69 2.66 1.72 1.37 1.27 1.25 1.25 1.24 1.14 1.19 1.17 1.25 1.45 1.23 1.09 0.87 0.70 0.63 0.57 0.54 0.50 0.50 0.57 0.74 0.89 1.05 1.12 1.24 1.61
0.55 0.71 0.79 0.95 1.21 1.42 1.66 1.82 2.16 2.62 3.05 2.42 1.77 1.61 1.48 1.33 1.12 0.87 0.80 0.85 0.89 1.20 1.20 1.13 1.04 0.94 0.92 0.92 0.82 0.69 0.58 0.51 0.48 0.51 0.58 0.73 0.84 0.94
0.36 0.41 0.44 0.47 0.54 0.58 0.69 0.87 1.03 1.18 1.42 1.39 1.09 1.00 1.02 1.15 1.25 1.17 1.04 0.95 0.88 1.15 1.06 1.04 1.08 1.05 0.96 0.90 0.92 0.98 0.97 0.77 0.56 0.48 0.49 0.53 0.70 0.87
0.13 0.15 0.22 0.31 0.43 0.62 0.86 0.96 0.92 0.80 0.72 0.65 0.60 0.53 0.50 0.54 0.64 0.68 0.65 0.57 0.49 0.50 0.57 0.57 0.65 0.69 0.78 0.81 0.73 0.70 0.78 0.96 1.07 0.99 0.80 0.72 0.69 0.74
0.26 0.31 0.37 0.49 0.57 0.53 0.45 0.36 0.37 0.41 0.43 0.47 0.43 0.33 0.28 0.25 0.27 0.29 0.33 0.39 0.44 0.50 0.41 0.33 0.27 0.23 0.28 0.43 0.59 0.72 0.74 0.78 0.88 1.02 1.09 1.01 0.98 1.01
0.34 0.37 0.41 0.50 0.40 0.39 0.30 0.26 0.22 0.27 0.26 0.22 0.17 0.12 0.10 0.12 0.16 0.24 0.35 0.48 0.49 0.33 0.34 0.31 0.27 0.21 0.16 0.16 0.28 0.41 0.55 0.64 0.71 0.73 0.86 1.05 1.06 1.03
0.25 0.23 0.20 0.19 0.17 0.13 0.19 0.21 0.25 0.23 0.19 0.14 0.10 0.07 0.07 0.08 0.18 0.26 0.27 0.33 0.24 0.12 0.26 0.35 0.30 0.31 0.22 0.24 0.25 0.23 0.33 0.44 0.50 0.58 0.67 0.76 0.94 1.15
0.15 0.13 0.09 0.04 0.03 0.03 0.05 0.11 0.08 0.11 0.16 0.19 0.17 0.17 0.21 0.25 0.32 0.45 0.34 0.28 0.16 0.09 0.17 0.28 0.16 0.22 0.20 0.22 0.32 0.30 0.34 0.35 0.37 0.43 0.52 0.65 0.75 0.84
0.07 0.03 0.02 0.01 0.03 0.04 0.05 0.03 0.01 0.01 0.09 0.18 0.29 0.41 0.49 0.51 0.41 0.42 0.51 0.54 0.40 0.14 0.09 0.16 0.11 0.15 0.16 0.17 0.20 0.29 0.32 0.38 0.46 0.53 0.48 0.50 0.63 0.74
0.03 0.02 0.03 0.02 0.04 0.08 0.10 0.06 0.08 0.02 0.06 0.08 0.11 0.19 0.28 0.33 0.39 0.30 0.28 0.57 0.54 0.62 0.29 0.47 0.27 0.24 0.53 0.16 0.15 0.22 0.25 0.30 0.33 0.40 0.65 0.75 0.69 0.70
0.03 0.01 0.01 0.03 0.09 0.13 0.14 0.09 0.13 0.12 0.10 0.08 0.06 0.11 0.18 0.28 0.33 0.35 0.37 0.55 0.84 0.68 0.18 0.86 1.05 0.52 0.90 0.35 0.08 0.11 0.14 0.20 0.28 0.34 0.45 0.63 0.87 0.89
0.03 0.02 0.02 0.08 0.12 0.11 0.12 0.11 0.15 0.17 0.10 0.06 0.07 0.08 0.15 0.22 0.28 0.36 0.49 0.61 0.63 0.74 0.36 0.62 1.47 0.70 1.06 0.85 0.33 0.13 0.16 0.18 0.24 0.30 0.37 0.58 0.76 0.89
0.04 0.06 0.10 0.11 0.11 0.08 0.08 0.11 0.11 0.09 0.09 0.13 0.10 0.09 0.11 0.16 0.31 0.51 0.65 0.74 0.86 0.82 0.76 0.83 1.06 0.89 1.22 1.24 0.64 0.25 0.31 0.28 0.24 0.27 0.37 0.52 0.64 0.72
0.07 0.10 0.14 0.13 0.12 0.10 0.11 0.11 0.09 0.10 0.17 0.24 0.19 0.14 0.19 0.29 0.43 0.50 0.67 0.65 0.89 0.72 0.72 0.90 0.90 1.16 1.49 0.94 0.87 0.63 0.30 0.49 0.40 0.38 0.46 0.45 0.53 0.70
0.39 0.25 0.18 0.12 0.10 0.11 0.11 0.12 0.19 0.26 0.33 0.31 0.39 0.43 0.40 0.40 0.40 0.39 0.62 0.80 0.97 0.62 0.54 0.58 0.79 0.90 0.94 0.96 1.12 0.62 0.44 0.38 0.33 0.51 0.60 0.54 0.45 0.66
0.46 0.29 0.17 0.13 0.12 0.13 0.18 0.23 0.28 0.36 0.38 0.47 0.54 0.55 0.63 0.62 0.55 0.56 0.61 0.77 0.75 0.50 0.58 0.64 0.71 1.03 0.96 0.80 0.76 0.69 0.65 0.44 0.32 0.33 0.45 0.85 0.47 0.33
0.41 0.15 0.11 0.13 0.15 0.17 0.24 0.31 0.32 0.27 0.40 0.62 0.71 0.71 0.78 0.82 0.82 0.74 0.57 0.68 0.65 0.52 0.56 0.69 0.92 1.33 1.51 0.71 0.40 0.45 0.85 0.70 0.47 0.45 0.44 0.56 0.59 0.35
0.20 0.14 0.10 0.12 0.19 0.28 0.32 0.39 0.44 0.46 0.52 0.56 0.66 0.67 0.82 1.00 0.87 0.67 0.60 0.70 0.74 0.69 0.66 0.63 0.70 0.94 1.63 1.11 1.02 0.43 0.41 0.82 0.99 0.71 0.43 0.40 0.55 0.47
0.09 0.16 0.13 0.16 0.28 0.37 0.43 0.54 0.65 0.66 0.62 0.77 0.69 0.67 0.64 1.00 0.86 0.58 0.67 0.61 0.75 0.82 0.69 0.37 0.27 0.56 1.04 1.46 1.48 0.62 0.53 0.57 0.81 1.20 0.94 0.91 0.48 0.39
0.11 0.21 0.24 0.31 0.40 0.50 0.60 0.65 0.73 0.61 0.60 0.55 0.49 0.54 0.61 0.82 0.93 0.76 0.67 0.82 0.59 0.45 0.44 0.38 0.52 0.70 0.92 1.31 0.84 0.42 0.41 0.45 0.51 0.51 0.70 1.38 1.61 1.34
0.30 0.41 0.42 0.44 0.51 0.64 0.75 0.78 0.67 0.49 0.41 0.52 0.54 0.53 0.63 0.84 0.59 0.67 0.69 0.68 0.64 0.76 0.59 0.59 0.56 0.62 0.73 0.75 0.82 0.68 0.49 0.41 0.35 0.37 0.41 0.42 0.44 0.47

GFSNE_prec_precacc_198.txt.gz
Total_Precipitation_Accumulation
1.42 1.35 1.29 1.17 1.28 1.40 1.57 1.88 2.40 2.23 1.42 0.92 0.89 0.88 0.88 0.90 1.06 0.95 0.78 0.99 1.05 1.03 1.04 1.10 0.99 1.03 1.00 1.06 1.19 1.13 1.37 1.67 1.65 1.61 1.69 1.81 1.66 1.65
1.42 1.46 1.47 1.41 1.38 1.31 1.28 1.40 1.59 1.96 1.82 1.04 0.94 0.99 1.15 1.34 1.72 1.70 1.61 1.81 1.43 1.21 1.14 0.93 0.80 0.66 0.59 0.61 0.65 0.67 0.77 1.04 1.27 1.36 1.44 1.70 2.15 2.11
1.59 1.84 1.95 2.06 2.26 2.24 2.29 2.45 2.58 2.69 2.66 1.72 1.37 1.27 1.25 1.25 1.24 1.14 1.19 1.17 1.25 1.45 1.23 1.09 0.87 0.70 0.63 0.57 0.54 0.50 0.50 0.57 0.74 0.89 1.05 1.12 1.24 1.61
0.55 0.71 0.79 0.95 1.21 1.42 1.66 1.82 2.16 2.62 3.05 2.42 1.77 1.61 1.48 1.33 1.12 0.88 0.80 0.85 0.89 1.20 1.20 1.13 1.04 0.94 0.92 0.92 0.82 0.69 0.58 0.51 0.48 0.51 0.58 0.73 0.84 0.94
0.36 0.41 0.44 0.47 0.54 0.58 0.69 0.87 1.03 1.18 1.42 1.39 1.09 1.00 1.02 1.15 1.26 1.18 1.04 0.95 0.88 1.15 1.06 1.04 1.08 1.05 0.96 0.90 0.92 0.98 0.97 0.77 0.56 0.48 0.49 0.53 0.70 0.88
0.13 0.15 0.22 0.31 0.43 0.62 0.86 0.96 0.92 0.80 0.72 0.65 0.60 0.53 0.50 0.54 0.64 0.68 0.65 0.57 0.49 0.50 0.57 0.57 0.65 0.69 0.78 0.81 0.73 0.70 0.78 0.96 1.07 0.99 0.80 0.73 0.69 0.74
0.26 0.31 0.37 0.49 0.57 0.53 0.45 0.36 0.37 0.41 0.43 0.47 0.43 0.33 0.28 0.25 0.27 0.29 0.33 0.39 0.44 0.50 0.41 0.33 0.27 0.23 0.28 0.43 0.59 0.72 0.74 0.78 0.88 1.02 1.09 1.03 0.99 1.01
0.34 0.37 0.41 0.50 0.40 0.39 0.30 0.26 0.22 0.27 0.26 0.22 0.17 0.12 0.10 0.12 0.16 0.24 0.35 0.48 0.49 0.33 0.34 0.31 0.27 0.21 0.16 0.16 0.28 0.41 0.55 0.64 0.71 0.74 0.87 1.06 1.06 1.03
0.25 0.23 0.20 0.19 0.17 0.13 0.19 0.21 0.25 0.23 0.19 0.14 0.10 0.07 0.07 0.08 0.18 0.26 0.27 0.33 0.24 0.12 0.26 0.35 0.30 0.31 0.22 0.24 0.25 0.23 0.34 0.44 0.50 0.58 0.67 0.76 0.94 1.15
0.15 0.13 0.09 0.04 0.03 0.03 0.05 0.11 0.09 0.11 0.16 0.19 0.17 0.17 0.21 0.25 0.32 0.45 0.34 0.28 0.16 0.09 0.17 0.28 0.16 0.22 0.20 0.22 0.32 0.30 0.34 0.35 0.37 0.43 0.52 0.65 0.75 0.84
0.07 0.03 0.02 0.01 0.03 0.05 0.06 0.03 0.01 0.01 0.09 0.18 0.29 0.41 0.49 0.51 0.41 0.42 0.51 0.54 0.40 0.14 0.09 0.16 0.11 0.15 0.16 0.17 0.20 0.29 0.32 0.38 0.46 0.53 0.48 0.50 0.63 0.74
0.03 0.02 0.03 0.03 0.05 0.08 0.10 0.06 0.08 0.02 0.06 0.08 0.11 0.19 0.28 0.33 0.39 0.30 0.28 0.57 0.54 0.62 0.29 0.47 0.27 0.24 0.53 0.16 0.15 0.22 0.25 0.30 0.33 0.40 0.65 0.75 0.69 0.70
0.03 0.02 0.02 0.04 0.09 0.13 0.14 0.09 0.13 0.12 0.10 0.08 0.06 0.11 0.18 0.28 0.33 0.35 0.37 0.55 0.84 0.68 0.18 0.87 1.06 0.52 0.91 0.35 0.08 0.11 0.14 0.20 0.28 0.34 0.45 0.63 0.87 0.89
0.04 0.02 0.02 0.08 0.12 0.11 0.12 0.11 0.15 0.17 0.10 0.06 0.07 0.08 0.15 0.22 0.28 0.36 0.49 0.61 0.63 0.74 0.36 0.62 1.48 0.71 1.07 0.86 0.33 0.13 0.16 0.18 0.24 0.30 0.37 0.58 0.76 0.89
0.04 0.06 0.10 0.11 0.11 0.08 0.08 0.11 0.11 0.09 0.09 0.13 0.10 0.09 0.11 0.16 0.31 0.51 0.65 0.74 0.86 0.82 0.76 0.83 1.07 0.90 1.23 1.25 0.64 0.25 0.31 0.28 0.24 0.27 0.37 0.52 0.64 0.72
0.07 0.10 0.14 0.13 0.12 0.10 0.11 0.11 0.09 0.10 0.17 0.24 0.19 0.14 0.19 0.29 0.43 0.50 0.67 0.65 0.89 0.72 0.72 0.90 0.90 1.16 1.49 0.94 0.87 0.63 0.30 0.49 0.40 0.38 0.46 0.45 0.53 0.70
0.39 0.25 0.18 0.12 0.10 0.11 0.11 0.12 0.19 0.26 0.33 0.31 0.39 0.43 0.40 0.40 0.40 0.39 0.62 0.81 0.97 0.62 0.54 0.58 0.79 0.90 0.94 0.96 1.13 0.62 0.44 0.38 0.33 0.51 0.60 0.54 0.45 0.66
0.46 0.29 0.17 0.13 0.12 0.13 0.18 0.23 0.28 0.36 0.38 0.47 0.54 0.55 0.63 0.62 0.56 0.56 0.62 0.77 0.75 0.50 0.58 0.64 0.71 1.03 0.96 0.80 0.76 0.69 0.65 0.44 0.32 0.33 0.45 0.85 0.47 0.33
0.41 0.15 0.11 0.13 0.15 0.17 0.24 0.31 0.32 0.27 0.40 0.62 0.71 0.71 0.78 0.82 0.83 0.74 0.57 0.68 0.65 0.53 0.56 0.69 0.93 1.34 1.52 0.71 0.40 0.45 0.85 0.70 0.47 0.45 0.44 0.56 0.59 0.35
0.20 0.14 0.10 0.12 0.19 0.28 0.32 0.39 0.44 0.46 0.52 0.56 0.66 0.67 0.82 1.01 0.87 0.68 0.60 0.71 0.74 0.69 0.67 0.63 0.71 0.95 1.64 1.12 1.04 0.44 0.41 0.82 0.99 0.71 0.44 0.41 0.55 0.47
0.09 0.16 0.13 0.16 0.28 0.37 0.43 0.54 0.65 0.66 0.62 0.77 0.69 0.67 0.64 1.01 0.87 0.58 0.67 0.61 0.75 0.82 0.69 0.37 0.27 0.56 1.05 1.48 1.50 0.63 0.53 0.57 0.81 1.20 0.95 0.92 0.49 0.39
0.11 0.21 0.24 0.31 0.40 0.50 0.60 0.65 0.73 0.61 0.60 0.55 0.49 0.54 0.61 0.82 0.94 0.76 0.67 0.83 0.59 0.45 0.45 0.38 0.52 0.70 0.93 1.32 0.85 0.42 0.41 0.45 0.51 0.51 0.70 1.38 1.62 1.36
0.30 0.41 0.42 0.44 0.51 0.64 0.75 0.78 0.67 0.49 0.41 0.52 0.54 0.53 0.64 0.84 0.60 0.67 0.70 0.69 0.65 0.76 0.59 0.59 0.56 0.63 0.73 0.75 0.82 0.68 0.49 0.41 0.35 0.37 0.41 0.42 0.44 0.47